Regional Weather Roundup
Issued by NWS

Home | Current Version | Previous Version | Text Only | Print | Product List | Glossary Off
Versions: 1 2 3 4 5 6 7 8 9 10 11 12 13 14 15 16 17 18 19 20 21 22 23 24 25 26 27 28 29 30 31 32 33 34 35 36 37 38 39 40 41 42 43 44 45 46 47 48 49 50

000
ASUS44 KMEG 241400
RWRTN
TENNESSEE HOURLY STATE WEATHER ROUNDUP
NATIONAL WEATHER SERVICE MEMPHIS TN
900 AM CDT WED MAY 24 2017

TNZ002-004-019-021-049-052-054-088>092-241500-
WEST TENNESSEE

CITY           SKY/WX    TMP DP  RH WIND       PRES   REMARKS
MEMPHIS INTL   CLOUDY    63  59  87 NW12      29.58R
NWS MEMPHIS      N/A     62 N/A N/A MISG        N/A
JACKSON        LGT RAIN  58  57  97 NW7       29.55R
DYERSBURG        N/A    N/A N/A N/A MISG        N/A
$$

TNZ008-025-027-028-033-062-065-066-241500-
NORTH MIDDLE TENNESSEE

CITY           SKY/WX    TMP DP  RH WIND       PRES   REMARKS
NASHVILLE      CLOUDY    63  60  90 CALM      29.47F
CLARKSVILLE    RAIN      60  57  89 N12       29.48F FOG
SMYRNA         CLOUDY    62  60  93 CALM      29.48F
CROSSVILLE     LGT RAIN  60  57  89 CALM      29.53S
$$

TNZ061-075-076-078-094-096-097-241500-
SOUTH MIDDLE TENNESSEE

CITY           SKY/WX    TMP DP  RH WIND       PRES   REMARKS
TULLAHOMA      PTSUNNY   63  61  94 SW6       29.50F
WINCHESTER     SUNNY     64  61  88 S8          N/A
$$

TNZ017-018-042-046-047-241500-
NORTHEAST TENNESSEE

CITY           SKY/WX    TMP DP  RH WIND       PRES   REMARKS
TRI CITIES     MOSUNNY   68  63  84 E5        29.57F
$$

TNZ012-013-036-069-073-074-241500-
CENTRAL EAST TENNESSEE

CITY           SKY/WX    TMP DP  RH WIND       PRES   REMARKS
KNOXVILLE      LGT RAIN  64  60  87 E7        29.49F
OAK RIDGE      RAIN      63  61  93 CALM      29.52S FOG
GATLINBURG     MOSUNNY   63  61  94 CALM      29.50F
$$

TNZ083-085-099-241500-
SOUTHEAST TENNESSEE

CITY           SKY/WX    TMP DP  RH WIND       PRES   REMARKS
CHATTANOOGA    LGT RAIN  62  59  90 SE5       29.51F
$$

SKY/WX REPORTED AS FAIR MEANS FEW OR NO CLOUDS BELOW
12 THOUSAND FEET.





USA.gov is the U.S. government's official web portal to all federal, state and local government web resources and services.